RJKA

Details ICAO RJKA (ASJ)
Name AMAMI
Region Japan
Timezone Asia/Tokyo (UTC+9.0)
Plans Departing 17
Arriving 14
Stats Elevation 27 ft / 8 m (AMSL)
Location 28.430635° 129.712543°
Runways 1
Magnetic Variation 5.941° W
Sunrise 2018-05-27 20:26:41 UTC / 2018-05-28 05:26:41 Local
Sunset 2018-05-28 10:12:58 UTC / 2018-05-28 19:12:58 Local
Advertisement - Login to hide

Runways

ID Width Length Bearing (true) Bearing (mag) Surface Threshold Offset Overrun Length
03 150 ft / 46 m 6,576 ft / 2,004 m 25.83° 31.77° Asphalt 0 ft / 0 m 197 ft / 60 m
21 150 ft / 46 m 6,576 ft / 2,004 m 205.84° 211.78° Asphalt 0 ft / 0 m 193 ft / 59 m

Approach Navaids

Runway Type Ident Frequency Range Bearing (true) Bearing (mag) Slope Elevation
03 Localiser IAM 109.30 MHz 18 nm / 33 km 25.82° 31.76° - 31 ft / 9 m (AMSL)
03 Glidescope IAM 109.30 MHz 10 nm / 19 km 25.84° 31.78° 3.00° 31 ft / 9 m (AMSL)
03 DME IAM 109.30 MHz 18 nm / 33 km - - - 31 ft / 9 m (AMSL)

Map

Weather


0- 5 10 15 20 25 30 35+ Temperature / ° C

Clouds and Precipitation
Forecast for 2018-05-27 18:00 UTC. Updated 5 hours ago

Ground ~20,000 ft ~40,000 ft Winds

METAR

RJKA 272211Z 15011KT 7000 -SHRA FEW005 SCT009 BKN010 24/23 Q1008 RMK 1ST005 3ST009 7CU010 A2977

TAF

Not found

Frequencies

Tower 134.80 MHz NAHA INFO
Tower 118.15 MHz RDO
Tower 126.20 MHz RDO
Warning: Do not use this data for real-world aviation or navigation. No guarantee of current accuracy is given.